Flag for U.S.A. Weather past 2 weeks in Mansfield, Texas, U.S.A.

72 °F


Feels Like: 75 °F
Forecast: 62 / 84 °F
Wind: 14 mph from North

Location: Burleson-Rendon

Current Time: Oct 9, 2015 at 9:33:02 PM

Latest Report: Oct 9, 2015 at 8:55 PM

Visibility: 10 mi

Pressure: 30.20 "Hg

Humidity: 68%

Dew point: 60 °F

Location of MansfieldLocation

Historic Weather in Mansfield — Graph


Mansfield temperature yesterday

Maximum temperature yesterday: 91 °F (at 2:55 PM)
Minimum temperature yesterday: 61 °F (at 4:35 AM)
Average temperature yesterday: 71 °F

Past Weeks' High & Low Weather Summary

High91 °F (Sep 25, 12:51 PM)94% (Oct 6, 6:50 AM)30.20 "Hg (Oct 6, 6:50 AM)
Low48 °F (Oct 3, 6:48 AM)21% (Sep 26, 3:47 PM)29.82 "Hg (Sep 28, 5:52 PM)
Average70 °F65%30.03 "Hg
* Reported Sep 24 8:15 PM — Oct 9 8:15 PM, Mansfield, Weather by CustomWeather, © 2015

Note: Actual official high and low records may vary slightly from our data, if they occured in-between our weather recording intervals... More about our weather records


Mansfield weather history for previous 24 hours

Time TempWeatherWind HumidityBarometerVisibility
8:15 PM
Fri, Oct 9
75 °FClear.17 mph58%30.18 "Hg10 mi
6:50 PM81 °FSunny.9 mph48%30.14 "Hg7 mi
5:49 PM82 °FSunny.13 mph48%30.14 "Hg7 mi
4:52 PM84 °FScattered clouds.15 mph45%30.13 "Hg7 mi
3:55 PM86 °FSunny.15 mph43%30.12 "Hg7 mi
2:55 PM86 °FScattered clouds.15 mph43%30.11 "Hg7 mi
1:55 PM84 °FPartly sunny.15 mph45%30.14 "Hg7 mi
12:55 PM88 °FPartly sunny.9 mph35%30.16 "Hg7 mi
11:55 AM86 °FBroken clouds.6 mph43%30.17 "Hg7 mi
10:55 AM84 °FSunny.7 mph45%30.18 "Hg7 mi
9:54 AM79 °FSunny.No wind58%30.17 "Hg7 mi
8:55 AM72 °FSunny.No wind73%30.16 "Hg7 mi
7:47 AM64 °FClear.No wind88%30.14 "Hg7 mi
6:49 AM64 °FPassing clouds.No wind88%30.14 "Hg10 mi
6:35 AM65 °FPassing clouds.No wind87%30.13 "Hg10 mi
6:15 AM64 °FClear.No wind88%30.12 "Hg10 mi
5:55 AM64 °FClear.No wind88%30.12 "Hg10 mi
5:35 AM64 °FClear.No wind89%30.10 "Hg10 mi
5:15 AM64 °FClear.No wind87%30.10 "Hg10 mi
4:55 AM64 °FClear.No wind87%30.10 "Hg10 mi
4:15 AM66 °FClear.No wind84%30.09 "Hg10 mi
3:55 AM66 °FClear.No wind83%30.09 "Hg10 mi
3:35 AM66 °FClear.No wind81%30.09 "Hg10 mi
3:15 AM67 °FClear.No wind83%30.08 "Hg10 mi
2:55 AM66 °FClear.No wind83%30.08 "Hg10 mi
2:35 AM66 °FClear.No wind83%30.07 "Hg10 mi
2:15 AM68 °FClear.No wind80%30.07 "Hg10 mi
1:55 AM67 °FClear.No wind80%30.06 "Hg10 mi
1:35 AM68 °FClear.No wind77%30.06 "Hg10 mi
1:15 AM67 °FClear.No wind79%30.07 "Hg10 mi
12:55 AM68 °FClear.No wind77%30.07 "Hg10 mi
12:35 AM69 °FClear.No wind77%30.06 "Hg10 mi
12:15 AM70 °FClear.No wind74%30.07 "Hg10 mi
11:55 PM
Thu, Oct 8
70 °FClear.No wind74%30.07 "Hg10 mi
11:15 PM70 °FPassing clouds.No wind71%30.08 "Hg10 mi
10:55 PM71 °FPassing clouds.No wind69%30.08 "Hg10 mi
10:35 PM71 °FPassing clouds.No wind68%30.08 "Hg10 mi
9:55 PM72 °FClear.3 mph65%30.07 "Hg10 mi
9:35 PM73 °FClear.No wind65%30.06 "Hg10 mi
9:15 PM72 °FClear.No wind66%30.05 "Hg10 mi
Weather by CustomWeather, © 2015

See weather overviewHow to use our weather pages